Regional Weather Roundup
Issued by NWS

Home | Current Version | Previous Version | Text Only | Print | Product List | Glossary Off
Versions: 1 2 3 4 5 6 7 8 9 10 11 12 13 14 15 16 17 18 19 20 21 22 23 24 25 26 27 28 29 30 31 32 33 34 35 36 37 38 39 40 41 42 43 44 45 46 47 48 49 50

000
ASUS44 KMEG 281710
RWRTN
TENNESSEE HOURLY STATE WEATHER ROUNDUP
NATIONAL WEATHER SERVICE MEMPHIS TN
1100 AM CST SUN DEC 28 2014

TNZ002-004-019-021-049-052-054-088>092-281800-
WEST TENNESSEE

CITY           SKY/WX    TMP DP  RH WIND       PRES   REMARKS
MEMPHIS INTL   LGT RAIN  40  36  86 N8        30.22S WCI  34
NWS MEMPHIS      N/A     39 N/A N/A MISG        N/A
JACKSON        CLOUDY    40  36  86 N8        30.20F WCI  34
DYERSBURG      CLOUDY    37  25  60 N6        30.24S WCI  33
UNION CITY     CLOUDY    34  34 100 N8        30.20F WCI  27
PARIS          CLOUDY    36  34  93 N7        30.19F WCI  30
HUNTINGDON     CLOUDY    37  34  89 N3        30.19F
LEXINGTON      CLOUDY    39  37  93 N8        30.16S WCI  34
SAVANNAH       CLOUDY    41  41 100 N6        30.16F
$$

TNZ008-025-027-028-033-062-065-066-281800-
NORTH MIDDLE TENNESSEE

CITY           SKY/WX    TMP DP  RH WIND       PRES   REMARKS
NASHVILLE      LGT RAIN  41  39  93 N8        30.17S
CLARKSVILLE    CLOUDY    38  36  92 N6        30.20S WCI  33
SMYRNA         LGT RAIN  42  40  93 N8        30.17F
COOKEVILLE     CLOUDY    45  43  93 N3        30.11S
CROSSVILLE     LGT RAIN  50  46  86 CALM      30.08F
$$

TNZ061-075-076-078-094-096-097-281800-
SOUTH MIDDLE TENNESSEE

CITY           SKY/WX    TMP DP  RH WIND       PRES   REMARKS
FAYETTEVILLE   CLOUDY    43  43 100 N9        30.11F
TULLAHOMA      CLOUDY    41  41 100 N6        30.12F
WINCHESTER     CLOUDY    46  46 100 NW6       30.12F
MCMINNVILLE    CLOUDY    45  45 100 CALM      30.13S
COLUMBIA       CLOUDY   N/A N/A N/A NW6       30.13S
SHELBYVILLE    CLOUDY    43  43 100 N6        30.15F
$$

TNZ017-018-042-046-047-281800-
NORTHEAST TENNESSEE

CITY           SKY/WX    TMP DP  RH WIND       PRES   REMARKS
TRI CITIES     RAIN      47  45  93 S5        30.09R FOG
ELIZABETHTON   CLOUDY    46  43  87 CALM      30.08R
$$

TNZ012-013-036-069-073-074-281800-
CENTRAL EAST TENNESSEE

CITY           SKY/WX    TMP DP  RH WIND       PRES   REMARKS
KNOXVILLE      LGT RAIN  48  48 100 CALM      30.09F FOG
OAK RIDGE      LGT RAIN  53  51  93 CALM      30.09F
GATLINBURG     CLOUDY    45  45 100 CALM      30.09F
MORRISTOWN     CLOUDY    46  46 100 S6        30.09F
$$

TNZ083-085-099-281800-
SOUTHEAST TENNESSEE

CITY           SKY/WX    TMP DP  RH WIND       PRES   REMARKS
CHATTANOOGA    LGT RAIN  55  54  96 N5        30.09F FOG
$$

SKY/WX REPORTED AS FAIR MEANS FEW OR NO CLOUDS BELOW
12 THOUSAND FEET.




USA.gov is the U.S. government's official web portal to all federal, state and local government web resources and services.